Regional Weather Roundup
Issued by NWS Goodland, KS

Home | Current Version | Previous Version | Graphics & Text | Print | Product List | Glossary On
Versions: 1 2 3 4 5 6 7 8 9 10 11 12 13 14 15 16 17 18 19 20 21 22 23 24 25 26 27 28 29 30 31 32 33 34 35 36 37 38 39 40 41 42 43 44 45 46 47 48 49 50
510
ASUS43 KGLD 232008
RWRGLD

GOODLAND FORECAST AREA HOURLY WEATHER ROUNDUP
NATIONAL WEATHER SERVICE GOODLAND KS
100 PM MST MON JAN 23 2017

...OFFICIAL OBSERVATIONS...

CITY           SKY/WX    TMP DP  RH WIND       PRES   REMARKS
GOODLAND KS    SUNNY     54  28  36 SW6       29.57F
HILL CITY KS   SUNNY     54  31  41 S17G28    29.63F
IMPERIAL NEB   SUNNY     47  25  42 CALM      29.58F
MCCOOK NEB     SUNNY     51  31  46 S16G24    29.60F
AKRON CO       SUNNY     48  22  35 NW9       29.56F
BURLINGTON CO  SUNNY     54  31  41 SW13      29.57F
LIMON CO       SUNNY     54  18  24 SW22G35   29.54F
$$

...UNOFFICIAL OBSERVATIONS...

CITY           SKY/WX    TMP DP  RH WIND       PRES   REMARKS
LENORA KS        N/A     52  32  46 SE12        N/A
NORTON KS      SUNNY     54  25  32 SE15G22   29.61F
SHARON SPRINGS   N/A     55  34  45 SW16G23     N/A
TRENTON NEB      N/A     52  32  46 SW6         N/A
KIT CARSON CO    N/A     56  28  34 MISG        N/A
YUMA CO        FAIR      45  28  53 NE8       29.56F
$$




USA.gov is the U.S. government's official web portal to all federal, state and local government web resources and services.